COSMOS 2251 DEB, 38060

Orbit data source: Space-Track

COSMOS 2251 DEB, 38060 is space debris in LEO originally from a launch on Wed, 16 Jun 1993 UTC launched from the Plesetsk Missile And Space Complex (PKMTR). The debris from Iridium 33, an American commercial communications satellite, has been tracked extensively since its accidental collision with the defunct Russian satellite Cosmos 2251 in 2009. This event, occurring at high speed in low Earth orbit (LEO), generated thousands of pieces of space debris, significantly increasing the risk of further collisions. The Iridium 33 debris cloud has impacted space traffic management and orbital debris mitigation strategies, making it a subject of ongoing study in space situational awareness.

Loading next visibility...
Identifier
38060, 1993-036BRS
Orbit
LEO
Country
Flag of CISCIS
Related business
Manufacturer
Unknown
Mission
Spacecraft
Bus & Motor
Unknown
Mass
Unknown
Launch date (UTC)
1993-06-16 (33 years ago)
Launch vehicle
Unknown
Launch site
Plesetsk Missile And Space Complex (PKMTR)
Object type
Payload
Rocket body
Debris
Shape & HBR
Unknown shape, 0.1 m
Radar Cross Section
Small (<0.1 m²)

Expand to show TLE details & history
Last TLE update: 4 days ago

TLE from 4 days ago
0 COSMOS 2251 DEB
1 38060U 93036BRS 26031.20052523  .00002821  00000-0  52808-3 0  9998
2 38060  74.0414 200.3507 0060389 294.6899  64.7989 14.64173397726888
Epoch: 2026-01-31T04:48Z
TLE epoch observation values (Epoch: 2026-01-31T04:48:45.379Z)
Latitude
-0.00001°
Longitude
-2.26631°
Altitude
664.436 km
Speed
7.535 km/s
True Right ascension
13h 21m 24s
True Declination
0° 00' 00"
Sunlit
Object was in daylight at epoch
Visualization orbit readout
Latitude
Unknown
Longitude
Unknown
Altitude
Unknown
Speed
Unknown
Apparent Right ascension
Unknown
Apparent Declination
Unknown
Sunlit
N/A
Visualization observer readout
Local Sidereal Time
00:20:52
Azimuth
Unknown
Elevation
Unknown
Doppler factor
Unknown
Orbital elements
Apogee altitude
719.93 km
Perigee altitude
634.716 km
Semi-major axis
7,055.46 km
Eccentricity
0.00604
Inclination
74.0414°
RAAN
200.3507°
Arg. of periapsis
294.6899°
True anomaly
65.42705°
Mean anomaly
64.7989°
Eccentric anomaly
65.11277°
Mean motion
3.66231 °/min
Orbital period
98.3 mins
BSTAR
0.00052808
Loading maneuver chart data...
Computing Atmospheric mass density...

Documentation

Showing up to 5 results
|